• In Portugal
  • List of Countries
  • For 7 days
  • Water Temperature
  • Satellite Maps
  • Weather Map
  • Weather Widgets
  • user-avatar
    Login

    Hourly Weather Boa Vista

    Today, 23 August, Wednesday

    Time Temperature Precipitation Wind Pressure Humidity
    00:00 +28°C° 0.3 mm 1 mps 753 mmHg 71%
    01:00 +27°C° 0.3 mm 1 mps 753 mmHg 75%
    02:00 +27°C° 0.3 mm 1 mps 753 mmHg 78%
    03:00 +26°C° 0 mm 1 mps 753 mmHg 80%
    04:00 +26°C° 0 mm 1 mps 753 mmHg 82%
    05:00 +26°C° 0 mm 1 mps 753 mmHg 84%
    06:00 +27°C° 0 mm 1 mps 753 mmHg 80%
    07:00 +28°C° 0 mm 1 mps 754 mmHg 76%
    08:00 +29°C° 0 mm 1 mps 754 mmHg 72%
    09:00 +31°C° 0 mm 1 mps 754 mmHg 66%
    10:00 +32°C° 0 mm 1 mps 754 mmHg 59%
    11:00 +35°C° 0 mm 2 mps 753 mmHg 53%
    12:00 +35°C° 0.2 mm 2 mps 753 mmHg 53%
    13:00 +36°C° 0.2 mm 2 mps 752 mmHg 52%
    14:00 +36°C° 0.2 mm 2 mps 751 mmHg 52%
    15:00 +36°C° 0 mm 2 mps 751 mmHg 52%
    16:00 +36°C° 0 mm 2 mps 751 mmHg 52%
    17:00 +35°C° 0 mm 1 mps 750 mmHg 52%
    18:00 +33°C° 0 mm 1 mps 751 mmHg 57%
    19:00 +31°C° 0 mm 1 mps 751 mmHg 61%
    20:00 +30°C° 0 mm 1 mps 752 mmHg 65%
    21:00 +29°C° 0 mm 1 mps 752 mmHg 68%
    22:00 +29°C° 0 mm 1 mps 752 mmHg 70%
    23:00 +28°C° 0 mm 1 mps 752 mmHg 72%

    Tomorrow, 24 August, Thursday

    Time Temperature Precipitation Wind Pressure Humidity
    00:00 +28°C° 0 mm 1 mps 752 mmHg 73%
    01:00 +27°C° 0 mm 1 mps 752 mmHg 75%
    02:00 +27°C° 0 mm 1 mps 752 mmHg 77%
    03:00 +27°C° 0 mm 1 mps 752 mmHg 79%
    04:00 +26°C° 0 mm 1 mps 752 mmHg 81%
    05:00 +24°C° 0 mm 0 mps 752 mmHg 83%
    06:00 +25°C° 0 mm 0 mps 753 mmHg 78%
    07:00 +28°C° 0 mm 1 mps 753 mmHg 73%
    08:00 +30°C° 0 mm 1 mps 754 mmHg 68%
    09:00 +31°C° 0.3 mm 1 mps 754 mmHg 66%
    10:00 +32°C° 0.3 mm 2 mps 754 mmHg 63%
    11:00 +34°C° 0.3 mm 2 mps 754 mmHg 60%
    12:00 +35°C° 0.3 mm 2 mps 753 mmHg 56%
    13:00 +36°C° 0.3 mm 2 mps 752 mmHg 52%
    14:00 +36°C° 0.3 mm 2 mps 751 mmHg 48%
    15:00 +35°C° 0.3 mm 2 mps 751 mmHg 55%
    16:00 +34°C° 0.3 mm 2 mps 751 mmHg 61%
    17:00 +32°C° 0.3 mm 2 mps 750 mmHg 67%
    18:00 +31°C° 0 mm 2 mps 751 mmHg 71%
    19:00 +30°C° 0 mm 2 mps 752 mmHg 75%
    20:00 +28°C° 0 mm 2 mps 752 mmHg 79%
    21:00 +28°C° 0 mm 2 mps 753 mmHg 80%
    22:00 +28°C° 0 mm 1 mps 753 mmHg 81%
    23:00 +27°C° 0 mm 1 mps 753 mmHg 83%

    Day after tomorrow, 25 August, Friday

    Time Temperature Precipitation Wind Pressure Humidity
    00:00 +27°C° 0 mm 1 mps 753 mmHg 84%
    01:00 +27°C° 0 mm 1 mps 752 mmHg 85%
    02:00 +24°C° 0 mm 0 mps 752 mmHg 86%
    03:00 +26°C° 0 mm 1 mps 752 mmHg 86%
    04:00 +26°C° 0 mm 1 mps 752 mmHg 87%
    05:00 +26°C° 0 mm 1 mps 752 mmHg 87%
    06:00 +27°C° 0.2 mm 1 mps 753 mmHg 85%
    07:00 +27°C° 0.2 mm 1 mps 753 mmHg 83%
    08:00 +28°C° 0.2 mm 1 mps 754 mmHg 81%
    09:00 +29°C° 0 mm 2 mps 754 mmHg 77%
    10:00 +30°C° 0 mm 2 mps 754 mmHg 72%
    11:00 +31°C° 0 mm 2 mps 754 mmHg 67%
    12:00 +32°C° 0 mm 2 mps 753 mmHg 61%
    13:00 +35°C° 0 mm 2 mps 752 mmHg 55%
    14:00 +36°C° 0 mm 2 mps 751 mmHg 49%
    15:00 +36°C° 0 mm 2 mps 751 mmHg 51%
    16:00 +35°C° 0 mm 2 mps 751 mmHg 54%
    17:00 +35°C° 0 mm 2 mps 751 mmHg 56%
    18:00 +32°C° 0.2 mm 2 mps 751 mmHg 62%
    19:00 +31°C° 0.2 mm 2 mps 752 mmHg 69%
    20:00 +29°C° 0.2 mm 2 mps 753 mmHg 75%
    21:00 +29°C° 0.3 mm 2 mps 753 mmHg 78%
    22:00 +28°C° 0.3 mm 2 mps 753 mmHg 81%
    23:00 +27°C° 0.3 mm 1 mps 753 mmHg 84%

    26 August, Saturday

    Time Temperature Precipitation Wind Pressure Humidity
    00:00 +27°C° 0 mm 1 mps 753 mmHg 85%
    01:00 +27°C° 0 mm 1 mps 752 mmHg 86%
    02:00 +26°C° 0 mm 1 mps 752 mmHg 87%
    03:00 +26°C° 0 mm 1 mps 752 mmHg 88%
    04:00 +26°C° 0 mm 1 mps 752 mmHg 89%
    05:00 +26°C° 0 mm 1 mps 752 mmHg 89%
    06:00 +27°C° 0 mm 1 mps 753 mmHg 84%
    07:00 +28°C° 0 mm 1 mps 753 mmHg 80%
    08:00 +29°C° 0 mm 1 mps 754 mmHg 75%
    09:00 +30°C° 0.4 mm 2 mps 754 mmHg 70%
    10:00 +32°C° 0.4 mm 2 mps 754 mmHg 65%
    11:00 +34°C° 0.4 mm 2 mps 753 mmHg 60%
    12:00 +34°C° 1.1 mm 2 mps 752 mmHg 61%
    13:00 +34°C° 1.1 mm 2 mps 752 mmHg 61%
    14:00 +35°C° 1.1 mm 2 mps 751 mmHg 62%
    15:00 +35°C° 0.3 mm 2 mps 751 mmHg 61%
    16:00 +34°C° 0.3 mm 2 mps 751 mmHg 60%
    17:00 +33°C° 0.3 mm 1 mps 750 mmHg 60%
    18:00 +32°C° 0.2 mm 1 mps 751 mmHg 67%
    19:00 +30°C° 0.2 mm 1 mps 752 mmHg 73%
    20:00 +28°C° 0.2 mm 1 mps 752 mmHg 80%
    21:00 +28°C° 0.3 mm 1 mps 752 mmHg 82%
    22:00 +27°C° 0.3 mm 1 mps 752 mmHg 85%
    23:00 +25°C° 0.3 mm 0 mps 753 mmHg 87%

    27 August, Sunday

    Time Temperature Precipitation Wind Pressure Humidity
    00:00 +27°C° 0.1 mm 1 mps 752 mmHg 88%
    01:00 +26°C° 0.1 mm 1 mps 752 mmHg 88%
    02:00 +26°C° 0.1 mm 1 mps 751 mmHg 89%
    03:00 +26°C° 0 mm 1 mps 751 mmHg 90%
    04:00 +26°C° 0 mm 1 mps 752 mmHg 91%
    05:00 +25°C° 0 mm 1 mps 752 mmHg 92%
    06:00 +26°C° 0.3 mm 1 mps 752 mmHg 89%
    07:00 +27°C° 0.3 mm 1 mps 753 mmHg 85%
    08:00 +28°C° 0.3 mm 1 mps 754 mmHg 82%
    09:00 +30°C° 0.6 mm 1 mps 754 mmHg 76%
    10:00 +31°C° 0.6 mm 1 mps 753 mmHg 70%
    11:00 +34°C° 0.6 mm 2 mps 753 mmHg 64%
    12:00 +34°C° 0.6 mm 1 mps 752 mmHg 59%
    13:00 +35°C° 0.6 mm 1 mps 751 mmHg 54%
    14:00 +35°C° 0.6 mm 1 mps 751 mmHg 49%
    15:00 +35°C° 0 mm 1 mps 750 mmHg 52%
    16:00 +34°C° 0 mm 1 mps 750 mmHg 56%
    17:00 +34°C° 0 mm 1 mps 750 mmHg 59%
    18:00 +32°C° 0 mm 1 mps 751 mmHg 63%
    19:00 +31°C° 0 mm 1 mps 751 mmHg 67%
    20:00 +30°C° 0 mm 1 mps 751 mmHg 71%
    21:00 +29°C° 0.4 mm 1 mps 752 mmHg 74%
    22:00 +28°C° 0.4 mm 1 mps 752 mmHg 78%
    23:00 +28°C° 0.4 mm 1 mps 752 mmHg 81%

    28 August, Monday

    Time Temperature Precipitation Wind Pressure Humidity
    00:00 +27°C° 1.2 mm 1 mps 752 mmHg 84%
    01:00 +27°C° 1.2 mm 1 mps 751 mmHg 87%
    02:00 +27°C° 1.2 mm 1 mps 751 mmHg 90%
    03:00 +27°C° 0 mm 1 mps 751 mmHg 90%
    04:00 +27°C° 0 mm 1 mps 751 mmHg 90%
    05:00 +27°C° 0 mm 1 mps 752 mmHg 90%
    06:00 +27°C° 0.3 mm 2 mps 752 mmHg 87%
    07:00 +28°C° 0.3 mm 2 mps 753 mmHg 84%
    08:00 +28°C° 0.3 mm 2 mps 754 mmHg 82%
    09:00 +30°C° 0.6 mm 2 mps 753 mmHg 75%
    10:00 +33°C° 0.6 mm 3 mps 753 mmHg 69%
    11:00 +34°C° 0.6 mm 3 mps 753 mmHg 63%
    12:00 +35°C° 0.6 mm 3 mps 752 mmHg 60%
    13:00 +35°C° 0.6 mm 3 mps 751 mmHg 57%
    14:00 +36°C° 0.6 mm 2 mps 751 mmHg 53%
    15:00 +36°C° 0 mm 2 mps 750 mmHg 54%
    16:00 +36°C° 0 mm 2 mps 750 mmHg 55%
    17:00 +36°C° 0 mm 2 mps 750 mmHg 56%
    18:00 +33°C° 0 mm 1 mps 751 mmHg 61%
    19:00 +31°C° 0 mm 1 mps 751 mmHg 66%
    20:00 +30°C° 0 mm 1 mps 752 mmHg 72%
    21:00 +29°C° 0.1 mm 1 mps 752 mmHg 74%
    22:00 +29°C° 0.1 mm 1 mps 752 mmHg 76%
    23:00 +28°C° 0.1 mm 1 mps 752 mmHg 78%
    Show more